CAPE
0 0 0 0 0 0 0 0 0 0 0 0 0 0 0 0 0 0 0 0 0 0 0 0 0 0 0 0 0 0 0 0 0 0 0 0 0 0 0 0 0 0 0 2
0 0 0 0 0 0 0 0 0 0 0 0 0 0 0 0 0 0 0 0 0 0 0 0 0 0 0 0 0 0 0 0 0 0 0 0 0 0 0 0 0 0 0 0
0 0 0 0 0 0 0 0 0 0 0 0 0 0 0 0 0 0 0 0 0 0 0 0 0 0 0 0 0 0 0 0 0 0 0 0 0 0 0 0 0 0 0 0
0 0 0 0 0 0 0 0 0 0 0 0 0 0 0 0 0 0 0 0 0 0 0 0 0 0 0 0 0 0 0 0 0 0 0 0 0 0 0 0 0 0 0 0
0 0 0 0 0 0 0 0 0 0 0 0 0 0 0 0 0 0 0 0 0 0 0 0 0 0 0 0 0 0 0 0 0 0 0 0 0 0 0 0 0 0 0 0
0 0 0 0 0 0 0 0 0 0 0 0 0 0 0 0 0 0 0 0 0 0 0 0 0 0 0 0 0 0 0 0 0 0 0 0 0 0 0 0 0 0 0 0
0 0 0 0 0 0 0 0 0 0 0 0 0 0 0 0 0 0 0 0 0 0 0 0 0 0 0 0 0 0 0 0 0 0 0 0 0 0 0 0 0 0 0 0
0 0 0 0 0 0 0 0 0 0 0 0 0 0 0 0 0 0 0 0 0 0 0 0 0 0 0 0 0 0 0 0 0 0 0 0 0 0 0 0 0 0 0 0
0 0 0 0 0 0 0 0 0 0 0 0 0 0 0 0 0 0 0 0 0 0 0 0 0 0 0 0 0 0 0 0 0 0 0 0 0 0 0 0 0 0 0 0
0 0 0 0 0 0 0 0 0 0 0 0 0 0 0 0 0 0 0 0 0 0 0 0 0 0 0 0 0 0 0 0 0 0 0 0 0 0 0 0 0 0 0 0
0 0 0 0 0 0 0 0 0 0 0 0 0 0 0 0 0 0 0 0 0 0 0 0 0 0 0 0 0 0 0 0 0 0 0 0 0 0 0 0 0 0 0 0
0 0 0 0 0 0 0 0 0 0 0 0 0 0 0 0 0 0 0 0 0 0 0 0 0 0 0 0 0 0 0 0 0 0 0 0 0 0 0 0 0 0 0 0
0 0 0 0 0 0 0 0 0 0 0 0 1 0 0 0 0 0 0 0 0 0 0 0 0 0 0 0 0 0 0 0 0 0 0 0 0 0 0 0 0 0 0 0
2 0 0 0 0 0 0 0 0 0 0 0 0 0 0 0 0 0 0 0 0 0 0 0 0 0 0 0 0 0 0 0 0 0 0 0 0 0 0 0 0 0 0 0
0 0 0 0 0 0 0 0 0 0 0 0 0 0 0 0 0 0 0 0 0 0 0 0 0 0 0 0 0 0 0 0 0 0 0 0 0 0 0 0 0 0 0 0
0 1 0 0 0 0 0 0 0 0 0 0 0 0 0 0 0 0 0 0 0 0 0 0 0 0 0 0 0 0 0 0 0 0 0 0 0 0 0 0 0 0 0 0
0 0 0 0 0 0 0 0 0 0 0 0 0 0 0 0 0 0 0 0 0 0 0 0 0 0 0 0 0 0 0 0 0 0 0 0 0 0 0 0 0 0 0 0
0 0 0 0 0 0 0 0 0 0 0 0 0 0 0 0 0 0 0 0 0 0 0 0 0 0 0 0 0 0 0 0 0 0 0 0 0 0 0 0 0 0 0 0
0 0 0 0 0 0 0 0 0 0 0 0 0 0 0 0 0 0 0 0 0 0 0 0 0 0 0 0 0 0 0 0 0 0 0 0 0 0 0 0 0 0 0 0
0 0 0 0 0 0 0 0 0 0 0 0 0 0 0 0 0 0 0 0 0 0 0 0 0 0 0 0 0 0 0 0 0 0 0 0 0 0 0 0 0 0 0 0
0 0 0 0 0 0 0 0 0 0 0 0 0 0 0 0 0 0 0 0 0 0 0 0 0 0 0 0 0 0 0 0 0 0 0 0 0 0 0 0 0 0 0 0
0 0 0 0 0 0 0 0 0 0 0 0 0 0 0 0 0 0 0 0 0 0 0 0 0 0 0 0 0 0 0 0 0 0 0 0 0 0 0 0 0 0 0 0
0 0 0 0 0 0 0 0 0 0 0 0 0 0 0 0 0 0 0 0 0 0 0 0 0 0 0 0 0 0 0 0 0 0 0 0 0 0 0 0 0 0 0 0
0 0 0 0 0 0 0 0 0 0 0 0 0 0 0 0 0 0 0 0 0 0 0 0 0 0 0 0 0 0 0 0 0 0 0 0 0 0 0 0 0 0 0 0
0 0 0 0 0 0 0 0 0 0 0 0 0 0 0 0 0 0 0 0 0 0 0 0 0 0 0 0 0 0 0 0 0 0 0 0 0 0 0 0 0 0 0 0
0 0 0 0 0 0 0 0 0 0 0 0 0 0 0 0 0 0 0 0 0 0 0 0 0 0 0 0 0 0 0 0 0 0 0 0 0 0 0 0 0 0 0 0
CIN
-0 -0 -0 -0 -0 -0 -0 -0 -0 -0 -0 -0 -0 -0 -0 -0 -0 -0 -0 -0 -0 -0 -0 -0 -0 -0 -0 -0 -0 -0 -0 -0 -0 -0 -0 -0 -0 -0 -0 -0 -0 -0 -0 -36
-0 -0 -0 -0 -0 -0 -0 -0 -0 -0 -0 -0 -0 -0 -0 -0 -0 -0 -0 -0 -0 -0 -0 -0 -0 -0 -0 -0 -0 -0 -0 -0 -0 -0 -0 -0 -0 -0 -0 -0 -0 -0 -0 -0
-0 -0 -0 -0 -0 -0 -0 -0 -0 -0 -0 -0 -0 -0 -0 -0 -0 -0 -0 -0 -0 -0 -0 -0 -0 -0 -0 -0 -0 -0 -0 -0 -0 -0 -0 -0 -0 -0 -0 -0 -0 -0 -0 -0
-0 -0 -0 -0 -0 -0 -0 -0 -0 -0 -0 -0 -0 -0 -0 -0 -0 -0 -0 -0 -0 -0 -0 -0 -0 -0 -0 -0 -0 -0 -0 -0 -0 -0 -0 -0 -0 -0 -0 -0 -0 -0 -0 -0
-0 -0 -0 -0 -0 -0 -0 -0 -0 -0 -0 -0 -0 -0 -0 -0 -0 -0 -0 -0 -0 -0 -0 -0 -0 -0 -0 -0 -0 -0 -0 -0 -0 -0 -0 -0 -0 -0 -0 -0 -0 -0 -0 -0
-0 -0 -0 -0 -0 -0 -0 -0 -0 -0 -0 -0 -0 -0 -0 -0 -0 -0 -0 -0 -0 -0 -0 -0 -0 -0 -0 -0 -0 -0 -0 -0 -0 -0 -0 -0 -0 -0 -0 -0 -0 -0 -0 -0
-0 -0 -0 -0 -0 -0 -0 -0 -0 -0 -0 -0 -0 -0 -0 -0 -0 -0 -0 -0 -0 -0 -0 -0 -0 -0 -0 -0 -0 -0 -0 -0 -0 -0 -0 -0 -0 -0 -0 -0 -0 -0 -0 -0
-0 -0 -0 -0 -0 -0 -0 -0 -0 -0 -0 -0 -0 -0 -0 -0 -0 -0 -0 -0 -0 -0 -0 -0 -0 -0 -0 -0 -0 -0 -0 -0 -0 -0 -0 -0 -0 -0 -0 -0 -0 -0 -0 -0
-0 -0 -0 -0 -0 -0 -0 -0 -0 -0 -0 -0 -0 -0 -0 -0 -0 -0 -0 -0 -0 -0 -0 -0 -0 -0 -0 -0 -0 -0 -0 -0 -0 -0 -0 -0 -0 -0 -0 -0 -0 -0 -0 -0
-0 -0 -0 -0 -0 -0 -0 -0 -0 -0 -0 -0 -0 -0 -0 -0 -0 -0 -0 -0 -0 -0 -0 -0 -0 -0 -0 -0 -0 -0 -0 -0 -0 -0 -0 -0 -0 -0 -0 -0 -0 -0 -0 -0
-0 -0 -0 -0 -0 -0 -0 -0 -0 -0 -0 -0 -0 -0 -0 -0 -0 -0 -0 -0 -0 -0 -0 -0 -0 -0 -0 -0 -0 -0 -0 -0 -0 -0 -0 -0 -0 -0 -0 -0 -0 -0 -0 -0
-0 -1 -4 -0 -0 -0 -0 -0 -0 -0 -0 -0 -0 -0 -0 -0 -0 -0 -0 -0 -0 -0 -0 -0 -0 -0 -0 -0 -0 -0 -0 -0 -0 -0 -0 -0 -0 -0 -0 -0 -0 -0 -0 -0
-2 -0 -0 -0 -0 -0 -0 -0 -0 -0 -6 -0 -0 -0 -0 -0 -0 -0 -0 -0 -0 -0 -0 -0 -0 -0 -0 -0 -0 -0 -0 -0 -0 -0 -0 -0 -0 -0 -0 -0 -0 -0 -0 -0
-9 -15 -0 -0 -0 -0 -0 -0 -0 -0 -0 -0 -0 -0 -0 -0 -0 -0 -0 -0 -0 -0 -0 -0 -0 -0 -0 -0 -0 -0 -0 -0 -0 -0 -0 -0 -0 -0 -0 -0 -0 -0 -0 -0
-0 -2 -0 -0 -0 -0 -0 -0 -0 -0 -0 -0 -0 -0 -0 -0 -0 -0 -0 -0 -0 -0 -0 -0 -0 -0 -0 -0 -0 -0 -0 -0 -0 -0 -0 -0 -0 -0 -0 -0 -0 -0 -0 -0
-0 -2 -0 -0 -0 -0 -0 -0 -0 -0 -0 -0 -0 -0 -0 -0 -0 -0 -0 -0 -0 -0 -0 -0 -0 -0 -0 -0 -0 -0 -0 -0 -0 -0 -0 -0 -0 -0 -0 -0 -0 -0 -0 -0
-0 -0 -0 -0 -0 -0 -0 -0 -0 -0 -0 -0 -0 -0 -0 -0 -0 -0 -0 -0 -0 -0 -0 -0 -0 -0 -0 -0 -0 -0 -0 -0 -0 -0 -0 -0 -0 -0 -0 -0 -0 -0 -0 -0
-0 -0 -0 -0 -0 -0 -0 -0 -0 -0 -0 -0 -0 -0 -0 -0 -0 -0 -0 -0 -0 -0 -0 -0 -0 -0 -0 -0 -0 -0 -0 -0 -0 -0 -0 -0 -0 -0 -0 -0 -0 -0 -0 -0
-0 -0 -0 -0 -0 -0 -0 -0 -0 -0 -0 -0 -0 -0 -0 -0 -0 -0 -0 -0 -0 -0 -0 -0 -0 -0 -0 -0 -0 -0 -0 -0 -0 -0 -0 -0 -0 -0 -0 -0 -0 -0 -0 -0
-0 -0 -0 -0 -0 -0 -0 -0 -0 -0 -0 -0 -0 -0 -0 -0 -0 -0 -0 -0 -0 -0 -0 -0 -0 -0 -0 -0 -0 -0 -0 -0 -0 -0 -0 -0 -0 -0 -0 -0 -0 -0 -0 -0
-0 -0 -0 -0 -0 -0 -0 -0 -0 -0 -0 -0 -0 -0 -0 -0 -0 -0 -0 -0 -0 -0 -0 -0 -0 -0 -0 -0 -0 -0 -0 -0 -0 -0 -0 -0 -0 -0 -0 -0 -0 -0 -0 -0
-0 -0 -0 -0 -0 -0 -0 -0 -0 -0 -0 -0 -0 -0 -0 -0 -0 -0 -0 -0 -0 -0 -0 -0 -0 -0 -0 -0 -0 -0 -0 -0 -0 -0 -0 -0 -0 -0 -0 -0 -0 -0 -0 -0
-0 -0 -0 -0 -0 -0 -0 -0 -0 -0 -0 -0 -0 -0 -0 -0 -0 -0 -0 -0 -0 -0 -0 -0 -0 -0 -0 -0 -0 -0 -0 -0 -0 -0 -0 -0 -0 -0 -0 -0 -0 -0 -0 -0
-0 -0 -0 -0 -0 -0 -0 -0 -0 -0 -0 -0 -0 -0 -0 -0 -0 -0 -0 -0 -0 -0 -0 -0 -0 -0 -0 -0 -0 -0 -0 -0 -0 -0 -0 -0 -0 -0 -0 -0 -0 -0 -0 -0
-0 -0 -0 -0 -0 -0 -0 -0 -0 -0 -0 -0 -0 -0 -0 -0 -0 -0 -0 -0 -0 -0 -0 -0 -0 -0 -0 -0 -0 -0 -0 -0 -0 -0 -0 -0 -0 -0 -0 -0 -0 -0 -0 -0
-0 -0 -0 -0 -0 -0 -0 -0 -0 -0 -0 -0 -0 -0 -0 -0 -0 -0 -0 -0 -0 -0 -0 -0 -0 -0 -0 -0 -0 -0 -0 -0 -0 -0 -0 -0 -0 -0 -0 -0 -0 -0 -0 -0
Wind_Speed
20 22 22 20 17 23 26 28 32 30 30 34 35 41 39 35 29 21 20 19 19 20 21 22 24 24 24 24 23 23 22 22 20 19 19 19 19 19 19 20 22 23 25 26
24 27 23 22 21 22 25 29 31 32 26 30 34 36 30 29 24 20 17 17 16 16 19 22 23 24 24 24 24 23 22 22 21 19 18 17 17 18 20 21 22 24 25 26
25 25 22 21 22 22 24 27 28 30 28 26 29 31 27 24 20 17 17 16 16 16 18 20 22 23 23 24 24 24 24 23 23 20 18 17 17 19 21 24 24 24 23 24
23 21 19 17 19 20 25 22 23 25 27 30 24 35 26 19 19 17 15 15 15 16 17 19 21 22 23 23 23 23 22 23 23 23 21 20 19 19 21 22 23 23 24 23
18 17 15 16 18 15 22 19 20 24 28 32 29 32 30 17 20 16 14 13 14 16 16 18 19 20 21 22 23 23 24 24 23 23 22 21 21 21 22 23 25 26 26 26
19 17 17 17 18 16 17 23 26 27 27 39 32 28 31 23 22 14 12 12 12 13 14 16 17 19 20 21 22 23 24 25 24 24 24 24 24 24 25 27 28 28 28 29
22 21 19 18 21 20 20 25 31 34 35 38 23 29 30 27 18 9 8 9 11 11 12 14 16 18 19 21 22 23 24 25 25 25 25 26 26 27 28 29 30 32 32 33
28 30 19 20 23 25 24 23 29 37 36 35 25 34 30 20 14 7 7 8 9 10 11 13 15 17 18 20 22 23 25 26 27 28 28 29 29 30 31 32 33 34 36 37
27 31 22 21 21 19 24 26 22 30 30 38 31 27 23 17 13 11 9 8 9 10 12 14 16 18 19 21 23 26 26 27 29 30 31 33 33 35 36 37 38 39 40 42
26 33 23 19 17 19 21 16 26 25 37 41 33 31 29 19 16 13 13 13 11 12 14 16 18 20 23 24 25 26 27 29 30 32 33 35 37 37 39 40 42 43 44 44
20 24 26 21 23 24 23 25 23 24 26 35 40 35 26 17 12 13 14 14 15 15 15 17 19 21 22 24 25 26 28 30 31 32 34 35 37 39 41 43 45 46 47 49
22 25 32 29 23 23 24 25 24 32 34 33 37 42 26 17 15 13 16 18 17 18 19 20 21 23 24 26 27 29 31 33 34 35 36 38 40 40 42 45 46 48 51 52
22 29 38 37 32 26 28 28 27 27 29 37 38 39 23 18 15 16 20 21 22 22 23 23 24 26 27 29 31 32 34 36 36 37 38 41 43 44 46 48 49 50 51 52
22 30 33 39 33 25 28 26 24 28 35 36 37 39 30 24 20 23 27 29 26 25 24 26 27 29 30 31 34 35 37 38 39 39 41 43 45 47 48 49 51 52 52 54
26 38 34 34 31 30 33 33 29 32 32 38 40 39 35 27 28 36 36 28 26 27 27 28 29 31 31 33 35 36 37 41 41 41 43 45 47 49 51 53 54 54 55 56
23 34 31 38 33 35 43 42 36 36 39 42 42 48 36 33 31 30 28 26 27 28 28 29 29 30 32 34 35 36 38 39 39 42 45 47 49 52 53 55 57 58 59 60
28 30 34 44 35 37 47 43 40 39 36 36 43 39 34 33 30 29 29 27 27 29 30 30 29 33 34 34 34 36 37 39 42 45 47 49 51 53 54 55 58 61 63 64
28 29 32 40 33 51 40 32 32 34 35 30 31 31 32 32 32 28 26 27 29 28 29 31 32 32 30 30 32 35 38 41 43 45 46 47 48 52 56 59 60 62 62 63
24 26 36 42 45 47 46 34 34 35 39 27 29 30 31 29 29 31 27 25 26 30 31 32 30 28 29 31 34 37 39 41 42 45 45 47 50 54 56 58 60 59 60 61
28 28 34 38 48 56 42 30 22 25 46 27 27 29 29 26 37 37 27 25 31 31 32 29 27 27 29 30 33 37 39 41 44 43 46 48 50 53 56 56 57 56 56 58
32 34 40 42 45 45 32 24 24 41 43 24 25 28 29 33 34 29 24 30 32 32 28 25 25 26 27 30 34 39 40 42 41 43 45 47 50 53 53 53 53 55 55 54
36 35 39 38 44 54 26 24 33 31 25 26 29 30 30 29 30 31 33 35 32 29 26 25 26 28 29 31 36 39 40 39 41 43 46 49 49 49 48 50 51 50 50 49
38 32 35 33 36 28 20 26 24 26 30 32 30 28 27 30 35 34 33 32 28 26 26 26 28 31 31 32 35 39 40 40 42 45 49 49 47 45 45 48 50 50 47 40
29 27 33 33 33 31 27 25 26 27 30 29 28 30 30 33 33 32 30 27 27 26 26 27 30 32 34 33 34 37 39 40 45 48 48 47 47 46 44 44 46 46 41 35
30 26 33 38 36 34 32 29 30 29 28 30 30 31 32 30 30 29 27 27 26 26 26 28 31 32 33 33 36 36 39 42 46 47 47 46 43 43 44 44 46 43 35 33
30 34 38 43 37 37 37 32 29 28 29 30 30 31 29 27 26 25 26 25 24 25 27 29 30 31 33 34 37 38 39 42 45 46 44 41 41 42 43 45 45 33 34 34
Wind_Direction
310 305 302 304 301 310 310 308 307 311 314 311 311 309 314 323 326 326 331 335 338 340 346 350 350 349 348 348 347 346 345 337 329 321 312 311 310 312 314 313 309 303 299 296
305 297 300 306 307 304 305 306 306 310 315 315 314 311 323 329 334 338 342 347 352 354 355 353 354 355 357 357 357 356 354 353 347 341 330 324 318 319 318 317 317 313 306 304
292 303 310 300 303 304 305 305 309 310 317 319 317 314 319 331 341 349 351 355 355 355 355 360 3 3 4 5 4 6 7 7 5 357 349 340 333 328 322 321 320 324 322 318
300 300 301 306 303 308 307 314 313 314 316 312 324 311 317 325 330 337 348 351 354 358 0 5 8 10 12 12 11 8 4 1 2 4 3 358 350 340 332 330 328 328 329 327
309 315 314 303 304 311 310 322 321 316 311 310 312 309 314 318 316 324 339 354 359 359 2 5 10 12 14 11 9 6 7 6 360 358 358 355 349 342 336 333 332 330 329 329
304 321 315 313 318 313 321 315 314 314 311 301 304 301 310 308 311 313 327 346 354 0 2 6 11 9 9 8 8 5 3 2 0 354 348 345 341 337 333 329 326 325 324 326
304 300 309 311 308 311 308 309 307 304 300 301 311 306 306 315 319 303 315 335 347 355 356 357 358 357 358 358 359 358 356 353 351 348 345 340 337 334 332 330 326 322 321 320
298 300 300 304 297 299 300 297 298 300 300 304 312 303 309 325 335 342 339 338 343 347 350 349 349 349 349 348 348 347 345 341 339 339 336 334 331 329 327 325 322 319 317 315
299 299 308 308 308 303 303 297 305 302 305 302 304 308 316 320 322 321 320 327 327 330 333 336 336 336 338 338 337 332 333 328 330 332 328 325 322 320 319 318 317 314 312 311
301 298 306 309 312 310 302 308 301 303 299 298 305 303 302 304 304 306 309 311 316 321 322 324 325 327 328 326 328 328 327 326 326 325 324 323 321 318 316 315 314 313 313 312
298 295 302 303 297 296 299 294 299 300 297 299 302 304 316 300 298 300 305 307 311 313 315 318 320 323 323 322 322 321 322 321 322 320 322 321 320 318 315 313 312 311 311 310
297 300 291 291 302 303 299 294 289 288 296 294 295 295 315 305 294 295 303 306 307 308 311 313 314 315 316 316 317 317 316 317 317 316 316 315 315 315 312 312 311 312 310 309
290 294 292 295 295 296 290 291 291 292 295 289 291 298 316 310 299 299 305 306 306 305 306 307 309 310 311 312 313 314 314 314 315 315 314 313 313 313 311 311 312 311 310 308
286 283 284 284 294 300 293 293 293 292 288 292 290 297 302 296 293 301 307 307 303 303 302 303 305 307 309 310 312 313 313 315 314 313 313 312 312 312 312 312 311 311 310 308
282 282 286 287 291 290 290 290 288 288 291 290 295 293 293 291 291 300 304 303 302 302 303 303 305 307 309 311 313 314 314 316 315 313 313 313 313 313 312 312 311 311 310 308
289 284 289 288 290 290 288 287 287 287 289 289 290 290 296 299 299 300 302 301 300 301 303 305 306 308 310 312 313 314 316 318 318 315 314 314 313 313 312 312 311 310 309 308
283 284 287 286 293 293 288 287 285 288 287 289 288 291 300 300 300 301 303 303 302 303 305 306 308 309 311 312 315 316 318 318 317 315 315 314 314 313 314 313 312 310 309 308
284 284 288 288 291 285 292 299 298 293 292 291 293 297 300 302 304 304 305 304 304 306 308 309 309 311 313 315 317 318 319 318 317 317 317 317 318 317 316 314 313 312 311 310
284 283 287 285 284 291 293 296 294 293 296 295 294 298 301 304 306 304 305 306 309 309 311 311 312 312 314 316 318 319 319 319 319 318 319 320 320 318 318 317 316 315 314 312
280 282 280 286 287 287 297 304 305 303 293 298 298 299 301 304 300 303 303 306 310 313 313 313 313 314 316 318 321 320 320 320 319 321 321 321 321 321 320 319 319 318 316 314
286 281 277 281 285 291 293 299 304 294 300 301 302 303 302 299 303 311 311 310 313 313 314 316 316 316 318 321 321 320 320 320 322 323 323 323 323 322 322 321 321 320 319 317
282 283 283 283 286 288 295 293 289 300 305 304 304 303 302 302 306 307 309 311 312 312 315 317 316 317 320 322 322 321 321 324 324 325 324 324 324 325 325 325 325 324 322 320
282 283 287 282 290 299 292 295 292 301 302 303 303 305 303 303 305 307 308 310 312 312 313 316 316 317 320 323 324 321 323 325 326 325 324 325 327 328 328 327 327 325 324 326
288 288 288 290 290 292 293 293 300 297 299 302 302 303 303 303 305 306 308 310 311 312 313 316 317 318 319 323 325 324 326 327 325 325 326 328 328 328 330 331 329 327 328 329
289 292 291 291 294 297 295 292 295 294 296 299 301 302 303 303 303 305 307 310 311 313 316 318 318 319 321 324 325 327 328 328 327 327 328 328 330 331 331 332 331 331 331 329
286 287 289 292 296 295 295 297 299 294 297 299 300 303 304 303 302 305 308 311 312 313 316 317 319 321 323 325 326 328 329 329 328 327 329 331 331 332 333 332 334 343 337 335